Weather in Krasnovishersk

Russia / Perm Krai     60°24′46″N   57°04′59″E
temp.,
°C
wind,
m/s
gust,
m/s
humid.,
%
clouds,
%
prec.,
mm/h
press.,
hPa
HPBL,
m
25 february, thu
thu2523:00−26n229710 0.0 103219
02:00−27nne11970 0.0 103119
05:00−28n11980 0.0 103019
08:00−29nne0010047 0.0 103019
11:00−23ssw119648 0.0 1029154
14:00−19ssw129393 0.0 1027296
17:00−18s139596 0.0 1026301
20:00−23se129988 0.0 102620
26 february, fri
fri2623:00−24se129981 0.0 102720
02:00−25se129985 0.0 102619
05:00−26se229987 0.0 102620
08:00−26se129889 0.0 102522
11:00−22sse269689 0.0 1025282
14:00−17sse358934 0.0 1022421
17:00−16sse378926 0.0 1021515
20:00−20se22950 0.0 102025
27 february, sat
sat2723:00−21se26930 0.0 1020120
02:00−22ese23910 0.0 101860
05:00−23ese22890 0.0 101724
08:00−23e22860 0.0 101630
11:00−17e24840 0.0 1015192
14:00−12ese38810 0.0 1014634
17:00−11se38830 0.0 1014733
20:00−18ese22910 0.0 101539
28 february, sun
sun2823:00−23ene229139 0.0 101253
02:00−24ene229183 0.0 101257
05:00−24ene229184 0.0 101366
08:00−25ene229160 0.0 101364
11:00−20ene249030 0.0 1013219
14:00−15ene24870 0.0 1013377
17:00−14ne259013 0.0 1014401
20:00−20ne239210 0.0 101560
1 march, mon
mon123:00−23ene11935 0.0 101820
02:00−25ene11930 0.0 101820
05:00−26ene11940 0.0 102019
08:00−27ne11940 0.0 102019
11:00−20sse11920 0.0 1020173
14:00−16sw129030 0.0 1018325
17:00−15ssw249363 0.0 1017404
20:00−19s259994 0.0 101588